Find Starlink 37856

NORAD ID: 69491 Int'l Des: 2026-131 Owner: SPXS Country: US Constellation: starlink operational
LEOCIRCULARRETROGRADE

現在のビュー

3D地球を読み込み中...

About Starlink 37856

Starlink 37856 (NORAD 69491) is a starlink constellation satellite (v2 mini) launched Jun 11, 2026 by SPXS of US. It operates in LEO, CIRCULAR, RETROGRADE orbit with a mass of 575.00 kg.

次回通過

Passes for default location (London). Set your location on the main map for personalized predictions.

高度履歴

Loading altitude history...

軌道要素

1 69491U 26131P 26221.63827946 .00004346 00000-0 13688-3 0 9996
2 69491 97.2845 243.1219 0001154 101.5479 258.5893 15.33444254 10484
Epoch: Aug 9, 2026 • Age: 17 hours

現在のステータス

高度 467.8 km
遠地点 / 近地点 N/A
速度 7.63 km/s
衛星直下点 13.56°N, 154.16°E
打ち上げ日 Jun 11, 2026
運用期間 0.1 years
タイプ internet

技術仕様

分類 Payload
質量 575.00 kg
乾燥質量 530.00 kg
総質量 575.00 kg
長さ 0.30 m
直径 4.10 m
スパン 29.00 m
形状 Box + pan
製造者 SPXS
バスタイプ Starlink V2MO
フェーズステータス In Orbit
所有者/国 SPXS/US

Most Searched